Time,TemperatureF,DewpointF,PressureIn,WindDirection,WindDirectionDegrees,WindSpeedMPH,WindSpeedGustMPH,Humidity,HourlyPrecipIn,Conditions,Clouds,dailyrainin,SolarRadiationWatts/m^2,SoftwareType,DateUTC
2013-02-17 00:05:00,12.8,9.0,30.16,NW,319,0.0,0.0,84,0.00,,,0.00,0,weatherlink.com 1.10,2013-02-17 05:05:00,
2013-02-17 00:20:00,12.5,9.0,30.16,NW,319,0.0,0.0,84,0.00,,,0.00,0,weatherlink.com 1.10,2013-02-17 05:20:00,
2013-02-17 00:35:00,12.1,8.0,30.15,NW,319,0.0,0.0,84,0.00,,,0.00,0,weatherlink.com 1.10,2013-02-17 05:35:00,
2013-02-17 00:50:00,11.5,7.0,30.16,NW,319,0.0,0.0,83,0.00,,,0.00,0,weatherlink.com 1.10,2013-02-17 05:50:00,
2013-02-17 01:06:00,11.0,7.0,30.16,NW,319,0.0,0.0,83,0.00,,,0.00,0,weatherlink.com 1.10,2013-02-17 06:06:00,
2013-02-17 01:20:00,10.5,6.0,30.16,NW,319,0.0,0.0,83,0.00,,,0.00,0,weatherlink.com 1.10,2013-02-17 06:20:00,
2013-02-17 01:35:00,10.0,6.0,30.16,NW,319,0.0,0.0,83,0.00,,,0.00,0,weatherlink.com 1.10,2013-02-17 06:35:00,
2013-02-17 01:51:00,9.7,6.0,30.16,NW,319,0.0,0.0,84,0.00,,,0.00,0,weatherlink.com 1.10,2013-02-17 06:51:00,
2013-02-17 02:05:00,9.3,5.0,30.16,NW,319,0.0,0.0,84,0.00,,,0.00,0,weatherlink.com 1.10,2013-02-17 07:05:00,
2013-02-17 02:20:00,8.9,5.0,30.16,NW,319,0.0,0.0,83,0.00,,,0.00,0,weatherlink.com 1.10,2013-02-17 07:20:00,
2013-02-17 02:35:00,8.6,5.0,30.17,NW,319,0.0,0.0,84,0.00,,,0.00,0,weatherlink.com 1.10,2013-02-17 07:35:00,
2013-02-17 02:50:00,8.2,4.0,30.17,NW,319,0.0,0.0,83,0.00,,,0.00,0,weatherlink.com 1.10,2013-02-17 07:50:00,
2013-02-17 03:06:00,7.9,4.0,30.17,NW,319,0.0,0.0,84,0.00,,,0.00,0,weatherlink.com 1.10,2013-02-17 08:06:00,
2013-02-17 03:21:00,7.7,4.0,30.18,NW,319,0.0,0.0,84,0.00,,,0.00,0,weatherlink.com 1.10,2013-02-17 08:21:00,
2013-02-17 03:36:00,7.6,4.0,30.18,NW,319,0.0,0.0,84,0.00,,,0.00,0,weatherlink.com 1.10,2013-02-17 08:36:00,
2013-02-17 03:51:00,7.5,4.0,30.18,NW,319,0.0,0.0,84,0.00,,,0.00,0,weatherlink.com 1.10,2013-02-17 08:51:00,
2013-02-17 04:06:00,7.6,4.0,30.18,NW,319,0.0,0.0,84,0.00,,,0.00,0,weatherlink.com 1.10,2013-02-17 09:06:00,
2013-02-17 04:21:00,7.6,4.0,30.18,NW,319,0.0,0.0,84,0.00,,,0.00,0,weatherlink.com 1.10,2013-02-17 09:21:00,
2013-02-17 04:36:00,7.6,4.0,30.18,NW,319,0.0,0.0,84,0.00,,,0.00,0,weatherlink.com 1.10,2013-02-17 09:36:00,
2013-02-17 04:51:00,7.3,4.0,30.19,NW,319,0.0,0.0,84,0.00,,,0.00,0,weatherlink.com 1.10,2013-02-17 09:51:00,
2013-02-17 05:06:00,7.1,3.0,30.20,NW,319,0.0,1.0,84,0.00,,,0.00,0,weatherlink.com 1.10,2013-02-17 10:06:00,
2013-02-17 05:21:00,6.8,3.0,30.20,NW,319,0.0,0.0,84,0.00,,,0.00,0,weatherlink.com 1.10,2013-02-17 10:21:00,
2013-02-17 05:36:00,6.7,3.0,30.20,NE,40,0.0,2.0,84,0.00,,,0.00,0,weatherlink.com 1.10,2013-02-17 10:36:00,
2013-02-17 05:51:00,6.8,3.0,30.19,NE,54,0.0,2.0,84,0.00,,,0.00,0,weatherlink.com 1.10,2013-02-17 10:51:00,
2013-02-17 06:06:00,6.8,3.0,30.20,NE,55,0.0,0.0,84,0.00,,,0.00,0,weatherlink.com 1.10,2013-02-17 11:06:00,
2013-02-17 06:21:00,6.7,3.0,30.21,NE,55,0.0,0.0,84,0.00,,,0.00,0,weatherlink.com 1.10,2013-02-17 11:21:00,
2013-02-17 06:36:00,6.5,2.0,30.22,NE,55,0.0,0.0,83,0.00,,,0.00,0,weatherlink.com 1.10,2013-02-17 11:36:00,
2013-02-17 06:51:00,6.2,2.0,30.22,NE,55,0.0,0.0,83,0.00,,,0.00,0,weatherlink.com 1.10,2013-02-17 11:51:00,
2013-02-17 07:06:00,5.7,2.0,30.23,NE,55,0.0,0.0,83,0.00,,,0.00,0,weatherlink.com 1.10,2013-02-17 12:06:00,
2013-02-17 07:21:00,5.4,1.0,30.22,NE,55,0.0,0.0,83,0.00,,,0.00,0,weatherlink.com 1.10,2013-02-17 12:21:00,
2013-02-17 07:36:00,5.1,1.0,30.24,NE,55,0.0,0.0,83,0.00,,,0.00,7,weatherlink.com 1.10,2013-02-17 12:36:00,
2013-02-17 07:51:00,5.2,1.0,30.23,NE,55,0.0,0.0,83,0.00,,,0.00,16,weatherlink.com 1.10,2013-02-17 12:51:00,
2013-02-17 08:06:00,5.8,2.0,30.24,NE,55,0.0,0.0,84,0.00,,,0.00,30,weatherlink.com 1.10,2013-02-17 13:06:00,
2013-02-17 08:21:00,6.5,3.0,30.23,NE,55,0.0,0.0,84,0.00,,,0.00,49,weatherlink.com 1.10,2013-02-17 13:21:00,
2013-02-17 08:36:00,7.4,4.0,30.24,NE,55,0.0,0.0,85,0.00,,,0.00,77,weatherlink.com 1.10,2013-02-17 13:36:00,
2013-02-17 08:51:00,9.7,6.0,30.24,NE,55,0.0,0.0,85,0.00,,,0.00,91,weatherlink.com 1.10,2013-02-17 13:51:00,
2013-02-17 09:07:00,10.6,7.0,30.25,NE,56,0.0,1.0,85,0.00,,,0.00,107,weatherlink.com 1.10,2013-02-17 14:07:00,
2013-02-17 09:21:00,11.4,8.0,30.24,ENE,57,0.0,2.0,84,0.00,,,0.00,125,weatherlink.com 1.10,2013-02-17 14:21:00,
2013-02-17 09:36:00,12.1,8.0,30.25,East,83,2.0,3.0,82,0.00,,,0.00,139,weatherlink.com 1.10,2013-02-17 14:36:00,
2013-02-17 09:51:00,13.1,8.0,30.25,East,100,1.0,3.0,79,0.00,,,0.00,174,weatherlink.com 1.10,2013-02-17 14:51:00,
2013-02-17 10:06:00,14.1,8.0,30.26,East,91,2.0,5.0,75,0.00,,,0.00,195,weatherlink.com 1.10,2013-02-17 15:06:00,
2013-02-17 10:21:00,15.0,7.0,30.26,East,88,0.0,2.0,70,0.00,,,0.00,264,weatherlink.com 1.10,2013-02-17 15:21:00,
2013-02-17 10:37:00,15.8,7.0,30.27,East,93,2.0,3.0,67,0.00,,,0.00,278,weatherlink.com 1.10,2013-02-17 15:37:00,
2013-02-17 10:52:00,16.3,7.0,30.26,East,89,1.0,3.0,66,0.00,,,0.00,311,weatherlink.com 1.10,2013-02-17 15:52:00,
2013-02-17 11:07:00,16.8,7.0,30.27,East,92,0.0,3.0,65,0.00,,,0.00,350,weatherlink.com 1.10,2013-02-17 16:07:00,
2013-02-17 11:22:00,17.5,8.0,30.27,East,94,3.0,5.0,65,0.00,,,0.00,367,weatherlink.com 1.10,2013-02-17 16:22:00,
2013-02-17 11:37:00,17.7,7.0,30.27,SSW,205,0.0,2.0,63,0.00,,,0.00,394,weatherlink.com 1.10,2013-02-17 16:37:00,
2013-02-17 11:52:00,18.4,7.0,30.27,ESE,107,0.0,3.0,62,0.00,,,0.00,471,weatherlink.com 1.10,2013-02-17 16:52:00,
2013-02-17 12:07:00,19.6,8.0,30.27,ESE,118,0.0,3.0,60,0.00,,,0.00,425,weatherlink.com 1.10,2013-02-17 17:07:00,
2013-02-17 12:22:00,19.6,8.0,30.27,SW,232,5.0,5.0,60,0.00,,,0.00,406,weatherlink.com 1.10,2013-02-17 17:22:00,
2013-02-17 12:37:00,20.2,7.0,30.26,SE,126,0.0,4.0,58,0.00,,,0.00,410,weatherlink.com 1.10,2013-02-17 17:37:00,
2013-02-17 12:52:00,20.3,7.0,30.26,WSW,245,0.0,5.0,57,0.00,,,0.00,401,weatherlink.com 1.10,2013-02-17 17:52:00,
2013-02-17 13:07:00,20.8,7.0,30.25,SW,221,2.0,5.0,55,0.00,,,0.00,503,weatherlink.com 1.10,2013-02-17 18:07:00,
2013-02-17 13:22:00,21.6,8.0,30.24,SW,232,5.0,7.0,56,0.00,,,0.00,529,weatherlink.com 1.10,2013-02-17 18:22:00,
2013-02-17 13:37:00,21.7,7.0,30.24,SSE,162,0.0,6.0,54,0.00,,,0.00,417,weatherlink.com 1.10,2013-02-17 18:37:00,
2013-02-17 13:52:00,22.4,8.0,30.23,SSE,168,0.0,5.0,55,0.00,,,0.00,577,weatherlink.com 1.10,2013-02-17 18:52:00,
2013-02-17 14:07:00,22.5,9.0,30.23,SW,226,2.0,9.0,56,0.00,,,0.00,506,weatherlink.com 1.10,2013-02-17 19:07:00,
2013-02-17 14:22:00,22.8,9.0,30.23,WSW,250,4.0,7.0,55,0.00,,,0.00,700,weatherlink.com 1.10,2013-02-17 19:22:00,
2013-02-17 14:37:00,22.8,8.0,30.22,WSW,248,3.0,7.0,54,0.00,,,0.00,501,weatherlink.com 1.10,2013-02-17 19:37:00,
2013-02-17 14:52:00,23.5,9.0,30.22,SSW,210,3.0,4.0,53,0.00,,,0.00,531,weatherlink.com 1.10,2013-02-17 19:52:00,
2013-02-17 15:08:00,23.8,9.0,30.22,WSW,252,0.0,6.0,54,0.00,,,0.00,512,weatherlink.com 1.10,2013-02-17 20:08:00,
2013-02-17 15:22:00,23.5,9.0,30.23,SW,221,2.0,7.0,55,0.00,,,0.00,464,weatherlink.com 1.10,2013-02-17 20:22:00,
2013-02-17 15:38:00,24.4,10.0,30.23,West,268,2.0,7.0,55,0.00,,,0.00,436,weatherlink.com 1.10,2013-02-17 20:38:00,
2013-02-17 15:52:00,23.6,10.0,30.22,WSW,237,1.0,8.0,56,0.00,,,0.00,369,weatherlink.com 1.10,2013-02-17 20:52:00,
2013-02-17 16:07:00,24.2,11.0,30.22,West,275,0.0,7.0,57,0.00,,,0.00,352,weatherlink.com 1.10,2013-02-17 21:07:00,
2013-02-17 16:22:00,24.3,11.0,30.22,WSW,248,3.0,7.0,56,0.00,,,0.00,313,weatherlink.com 1.10,2013-02-17 21:22:00,
2013-02-17 16:38:00,24.2,10.0,30.22,WSW,244,1.0,5.0,56,0.00,,,0.00,281,weatherlink.com 1.10,2013-02-17 21:38:00,
2013-02-17 16:52:00,23.9,11.0,30.21,SW,225,0.0,6.0,57,0.00,,,0.00,118,weatherlink.com 1.10,2013-02-17 21:52:00,
2013-02-17 17:07:00,24.0,11.0,30.22,SW,226,5.0,5.0,57,0.00,,,0.00,120,weatherlink.com 1.10,2013-02-17 22:07:00,
2013-02-17 17:22:00,24.1,11.0,30.21,SW,229,3.0,4.0,58,0.00,,,0.00,62,weatherlink.com 1.10,2013-02-17 22:22:00,
2013-02-17 17:37:00,23.9,11.0,30.21,SSW,209,0.0,3.0,58,0.00,,,0.00,44,weatherlink.com 1.10,2013-02-17 22:37:00,
2013-02-17 17:52:00,23.5,11.0,30.21,SW,215,0.0,2.0,58,0.00,,,0.00,16,weatherlink.com 1.10,2013-02-17 22:52:00,
2013-02-17 18:08:00,23.2,11.0,30.21,South,173,2.0,3.0,59,0.00,,,0.00,12,weatherlink.com 1.10,2013-02-17 23:08:00,
2013-02-17 18:22:00,23.0,11.0,30.20,South,173,0.0,0.0,60,0.00,,,0.00,7,weatherlink.com 1.10,2013-02-17 23:22:00,
2013-02-17 18:38:00,22.7,11.0,30.20,South,173,0.0,2.0,60,0.00,,,0.00,5,weatherlink.com 1.10,2013-02-17 23:38:00,
2013-02-17 18:52:00,22.1,10.0,30.20,South,173,0.0,3.0,61,0.00,,,0.00,5,weatherlink.com 1.10,2013-02-17 23:52:00,
2013-02-17 19:07:00,21.6,10.0,30.20,South,173,0.0,0.0,62,0.00,,,0.00,5,weatherlink.com 1.10,2013-02-18 00:07:00,
2013-02-17 19:22:00,21.1,10.0,30.19,South,173,0.0,0.0,63,0.00,,,0.00,5,weatherlink.com 1.10,2013-02-18 00:22:00,
2013-02-17 19:38:00,20.4,10.0,30.20,South,173,0.0,2.0,64,0.00,,,0.00,5,weatherlink.com 1.10,2013-02-18 00:38:00,
2013-02-17 19:52:00,19.8,10.0,30.20,South,173,0.0,0.0,65,0.00,,,0.00,5,weatherlink.com 1.10,2013-02-18 00:52:00,
2013-02-17 20:07:00,19.4,10.0,30.20,South,173,0.0,0.0,66,0.00,,,0.00,5,weatherlink.com 1.10,2013-02-18 01:07:00,
2013-02-17 20:22:00,19.0,10.0,30.19,South,173,0.0,0.0,67,0.00,,,0.00,5,weatherlink.com 1.10,2013-02-18 01:22:00,
2013-02-17 20:37:00,18.6,10.0,30.19,South,173,0.0,0.0,68,0.00,,,0.00,5,weatherlink.com 1.10,2013-02-18 01:37:00,
2013-02-17 20:52:00,18.5,10.0,30.19,South,173,0.0,1.0,69,0.00,,,0.00,5,weatherlink.com 1.10,2013-02-18 01:52:00,
2013-02-17 21:08:00,18.5,10.0,30.19,SE,134,0.0,2.0,69,0.00,,,0.00,5,weatherlink.com 1.10,2013-02-18 02:08:00,
2013-02-17 21:22:00,18.6,10.0,30.19,SE,128,0.0,2.0,69,0.00,,,0.00,5,weatherlink.com 1.10,2013-02-18 02:22:00,
2013-02-17 21:37:00,18.5,10.0,30.19,SE,129,0.0,2.0,69,0.00,,,0.00,5,weatherlink.com 1.10,2013-02-18 02:37:00,
2013-02-17 21:53:00,18.4,10.0,30.20,SE,130,0.0,2.0,70,0.00,,,0.00,5,weatherlink.com 1.10,2013-02-18 02:53:00,
2013-02-17 22:07:00,18.2,10.0,30.19,SE,129,0.0,2.0,70,0.00,,,0.00,5,weatherlink.com 1.10,2013-02-18 03:07:00,
2013-02-17 22:23:00,18.0,10.0,30.19,SE,126,1.0,4.0,70,0.00,,,0.00,5,weatherlink.com 1.10,2013-02-18 03:23:00,
2013-02-17 22:38:00,18.0,10.0,30.18,ESE,122,0.0,2.0,70,0.00,,,0.00,5,weatherlink.com 1.10,2013-02-18 03:38:00,
2013-02-17 22:52:00,18.1,10.0,30.18,ESE,123,0.0,2.0,70,0.00,,,0.00,5,weatherlink.com 1.10,2013-02-18 03:52:00,
2013-02-17 23:08:00,18.2,10.0,30.18,SE,124,0.0,4.0,70,0.00,,,0.00,5,weatherlink.com 1.10,2013-02-18 04:08:00,
2013-02-17 23:23:00,18.3,10.0,30.17,ESE,120,0.0,3.0,70,0.00,,,0.00,5,weatherlink.com 1.10,2013-02-18 04:23:00,
2013-02-17 23:38:00,18.4,10.0,30.17,SE,136,0.0,3.0,70,0.00,,,0.00,5,weatherlink.com 1.10,2013-02-18 04:38:00,
2013-02-17 23:54:00,18.5,10.0,30.16,SE,130,1.0,3.0,70,0.00,,,0.00,5,weatherlink.com 1.10,2013-02-18 04:54:00,